Location: Newark
(31.5350°N, 35.0986°E)
Time: 18:28:20
(UTC+00:00)

A-11 Canister half - Visible Passes

Search period start: 21 October 2019 00:00
Search period end: 31 October 2019 00:00
Orbit: 1514 x 1686 km, 47.2° (Epoch: 21 October)

Date Brightness Start Highest point End Pass type
(mag) Time Alt. Az. Time Alt. Az. Time Alt. Az.
21 Oct 9.9 01:35:28 29° NW 01:38:15 33° N 01:46:38 10° NE visible
21 Oct 10.7 23:15:39 22° NE 23:15:39 22° NE 23:18:24 10° NE visible
22 Oct 9.9 01:13:50 33° NNW 01:15:11 34° NNW 01:23:39 10° NE visible
22 Oct 10.0 03:14:03 10° NW 03:22:42 35° NNE 03:31:04 10° ENE visible
22 Oct 11.0 22:54:01 16° NE 22:54:01 16° NE 22:55:29 10° NE visible
23 Oct 9.9 00:52:13 34° NNW 00:52:13 34° NNW 01:00:41 10° NE visible
23 Oct 10.1 02:51:01 10° NW 02:59:38 34° NNE 03:08:00 10° ENE visible
23 Oct 11.3 22:32:23 11° NE 22:32:23 11° NE 22:32:33 10° NE visible
24 Oct 10.0 00:30:35 34° N 00:30:35 34° N 00:37:43 10° NE visible
24 Oct 10.1 02:28:47 12° NW 02:36:35 34° NNE 02:44:55 10° ENE visible
25 Oct 10.2 00:08:57 31° NNE 00:08:57 31° NNE 00:14:45 10° NE visible
25 Oct 10.1 02:07:10 17° NW 02:13:32 33° N 02:21:50 10° ENE visible
25 Oct 10.5 23:47:20 26° NNE 23:47:20 26° NNE 23:51:48 10° NE visible
26 Oct 10.1 01:45:32 22° NW 01:50:27 32° N 01:58:46 10° ENE visible
26 Oct 10.7 23:25:44 21° NE 23:25:44 21° NE 23:28:50 10° NE visible
27 Oct 10.1 01:23:56 26° NNW 01:27:23 32° N 01:35:41 10° ENE visible
27 Oct 9.5 03:24:38 10° NW 03:34:10 59° NNE 03:43:21 10° ESE visible
27 Oct 11.0 23:04:09 16° NE 23:04:09 16° NE 23:05:53 10° NE visible
28 Oct 10.0 01:02:21 30° NNW 01:04:19 32° N 01:12:37 10° ENE visible
28 Oct 9.5 03:01:41 10° NW 03:11:12 56° NNE 03:20:21 10° ESE visible
28 Oct 11.3 22:42:35 11° NE 22:42:35 11° NE 22:42:56 10° NE visible
29 Oct 10.1 00:40:47 31° N 00:41:14 32° N 00:49:33 10° ENE visible
29 Oct 9.6 02:39:00 11° NW 02:48:13 54° NNE 02:57:21 10° ESE visible
30 Oct 10.2 00:19:16 31° NNE 00:19:16 31° NNE 00:26:29 10° ENE visible
30 Oct 9.6 02:17:28 16° NW 02:25:14 51° NNE 02:34:19 10° ESE visible
